Date String (YYYY-MM-DD hh:mm:ss) UTC,Instrument flags,Ambient pressure (hPa),Sample flow (lpm),Bypass flow (lpm),Sample temperature (°C),Ambient temperature (°C),ASC tube jacket temperature (°C),LED temperature (°C),Box temperature (°C),Sample RH (%),Span deviation,Mass concentration (μg/m³),Mass concentration (μg/m³),Mass concentration (μg/m³)
DateTimeUTC,F1_M11,P_M11,Q1_M11,Q2_M11,T1_M11,T2_M11,T3_M11,T4_M11,T5_M11,U1_M11,ZSPAN_M11,X0_M11,X2_M11,X1_M11
2022-09-18 09:00:00,,0823.7,4.99,0.00,30.7,29.2,00.0,39.5,32.4,19.7,0000.1,0008.80,0005.13,0004.61
2022-09-18 09:01:00,,0823.7,5.01,0.00,30.7,29.2,00.0,39.5,32.4,19.7,0000.5,0009.03,0005.11,0004.61
2022-09-18 09:02:00,,0823.7,5.00,0.00,30.7,29.2,00.0,39.5,32.4,19.7,0000.1,0008.95,0005.10,0004.60
2022-09-18 09:03:00,,0823.7,4.99,0.00,30.7,29.2,00.0,39.5,32.5,19.7,0000.0,0008.97,0005.13,0004.59
2022-09-18 09:04:00,,0823.7,5.01,0.00,30.7,29.2,00.0,39.5,32.5,19.7,0000.0,0009.74,0005.12,0004.60
2022-09-18 09:05:00,,0823.7,5.01,0.00,30.7,29.2,00.0,39.5,32.4,19.7,0000.0,0009.91,0005.13,0004.61
2022-09-18 09:06:00,,0823.7,4.99,0.00,30.7,29.2,00.0,39.5,32.4,19.8,0000.0,0010.45,0005.19,0004.62
2022-09-18 09:07:00,,0823.7,5.01,0.00,30.7,29.2,00.0,39.5,32.4,19.8,0000.0,0010.68,0005.21,0004.61
2022-09-18 09:08:00,,0823.7,5.01,0.00,30.7,29.2,00.0,39.5,32.5,19.8,0000.0,0010.78,0005.25,0004.61
2022-09-18 09:09:00,,0823.7,5.00,0.00,30.7,29.2,00.0,39.5,32.4,19.8,0000.0,0010.76,0005.24,0004.62
2022-09-18 09:10:00,,0823.7,5.00,0.00,30.7,29.2,00.0,39.5,32.4,19.8,0000.0,0011.05,0005.28,0004.64
2022-09-18 09:11:00,,0823.7,4.99,0.00,30.7,29.2,00.0,39.5,32.5,19.8,0000.0,0011.08,0005.28,0004.64
2022-09-18 09:12:00,,0823.7,4.99,0.00,30.7,29.3,00.0,39.5,32.5,19.8,0000.0,0010.85,0005.30,0004.66
2022-09-18 09:13:00,,0823.7,5.01,0.00,30.7,29.2,00.0,39.5,32.5,19.7,0000.0,0010.83,0005.30,0004.68
2022-09-18 09:14:00,,0823.6,5.00,0.00,30.7,29.2,00.0,39.5,32.5,19.7,0000.8,0010.69,0005.26,0004.70
2022-09-18 09:15:00,,0823.7,4.99,0.00,30.7,29.2,00.0,39.5,32.5,19.7,0001.4,0010.09,0005.28,0004.72
2022-09-18 09:16:00,,0823.6,5.01,0.00,30.7,29.2,00.0,39.5,32.5,19.7,0001.9,0009.78,0005.29,0004.74
2022-09-18 09:17:00,,0823.6,5.00,0.00,30.7,29.2,00.0,39.5,32.5,19.7,0001.0,0009.50,0005.27,0004.75
2022-09-18 09:18:00,,0823.7,4.99,0.00,30.7,29.2,00.0,39.5,32.5,19.7,0000.7,0009.24,0005.24,0004.76
2022-09-18 09:19:00,,0823.7,5.01,0.00,30.7,29.2,00.0,39.5,32.5,19.7,0000.5,0009.66,0005.26,0004.78
2022-09-18 09:20:00,,0823.7,4.98,0.00,30.7,29.2,00.0,39.5,32.5,19.7,0000.3,0009.79,0005.26,0004.79
2022-09-18 09:21:00,,0823.7,4.99,0.00,30.7,29.2,00.0,39.5,32.5,19.6,0000.3,0009.62,0005.25,0004.78
2022-09-18 09:22:00,,0823.7,5.01,0.00,30.8,29.3,00.0,39.5,32.5,19.6,0000.0,0009.46,0005.26,0004.78
2022-09-18 09:23:00,,0823.7,5.00,0.00,30.8,29.3,00.0,39.5,32.5,19.6,0002.0,0009.20,0005.28,0004.78
2022-09-18 09:24:00,,0823.7,4.99,0.00,30.8,29.2,00.0,39.6,32.5,19.7,0000.0,0009.19,0005.30,0004.76
2022-09-18 09:25:00,,0823.7,5.01,0.00,30.7,29.2,00.0,39.6,32.5,19.7,0000.0,0009.50,0005.31,0004.75
2022-09-18 09:26:00,,0823.7,4.98,0.00,30.8,29.2,00.0,39.5,32.5,19.7,0000.0,0009.99,0005.31,0004.74
2022-09-18 09:27:00,,0823.7,5.00,0.00,30.8,29.3,00.0,39.5,32.5,19.6,0000.0,0009.89,0005.29,0004.74
2022-09-18 09:28:00,,0823.7,5.01,0.00,30.8,29.3,00.0,39.6,32.5,19.6,0001.2,0009.88,0005.28,0004.74
2022-09-18 09:29:00,,0823.7,4.99,0.00,30.8,29.3,00.0,39.6,32.5,19.6,0000.3,0009.98,0005.32,0004.73
2022-09-18 09:30:00,,0823.7,5.01,0.00,30.8,29.3,00.0,39.6,32.5,19.5,0000.7,0009.88,0005.34,0004.71
2022-09-18 09:31:00,,0823.7,4.99,0.00,30.8,29.3,00.0,39.6,32.5,19.4,0000.8,0009.60,0005.32,0004.70
2022-09-18 09:32:00,,0823.7,4.99,0.00,30.8,29.3,00.0,39.6,32.5,19.4,0000.0,0009.63,0005.33,0004.70
2022-09-18 09:33:00,,0823.7,5.01,0.00,30.8,29.3,00.0,39.6,32.5,19.4,0000.0,0009.54,0005.30,0004.70
2022-09-18 09:34:00,,0823.7,4.99,0.00,30.8,29.2,00.0,39.6,32.5,19.3,0000.0,0009.38,0005.24,0004.68
2022-09-18 09:35:00,,0823.7,5.00,0.00,30.8,29.3,00.0,39.6,32.5,19.3,0000.0,0009.75,0005.21,0004.68
2022-09-18 09:36:00,,0823.7,5.01,0.00,30.8,29.3,00.0,39.6,32.5,19.3,0000.0,0010.30,0005.19,0004.67
2022-09-18 09:37:00,,0823.8,4.99,0.00,30.8,29.3,00.0,39.6,32.5,19.4,0000.0,0010.18,0005.16,0004.66
2022-09-18 09:38:00,,0823.7,5.00,0.00,30.8,29.3,00.0,39.6,32.5,19.3,0000.0,0011.00,0005.14,0004.65
2022-09-18 09:39:00,,0823.7,5.00,0.00,30.8,29.3,00.0,39.6,32.5,19.4,0001.0,0011.30,0005.19,0004.64
2022-09-18 09:40:00,,0823.7,5.01,0.00,30.8,29.3,00.0,39.6,32.5,19.4,0000.0,0011.27,0005.20,0004.64
2022-09-18 09:41:00,,0823.7,4.99,0.00,30.8,29.3,00.0,39.6,32.5,19.4,0000.0,0011.11,0005.13,0004.64
2022-09-18 09:42:00,,0823.8,5.00,0.00,30.8,29.3,00.0,39.6,32.5,19.3,0001.4,0011.41,0005.14,0004.64
2022-09-18 09:43:00,,0823.7,5.01,0.00,30.8,29.3,00.0,39.6,32.6,19.4,0001.5,0011.94,0005.16,0004.63
2022-09-18 09:44:00,,0823.7,4.99,0.00,30.8,29.3,00.0,39.6,32.5,19.2,0002.0,0011.99,0005.15,0004.63
2022-09-18 09:45:00,,0823.7,5.01,0.00,30.8,29.3,00.0,39.6,32.5,19.0,0000.0,0012.05,0005.15,0004.61
2022-09-18 09:46:00,,0823.7,5.00,0.00,30.8,29.3,00.0,39.6,32.5,19.2,0000.0,0011.77,0005.14,0004.61
2022-09-18 09:47:00,,0823.7,4.99,0.00,30.8,29.3,00.0,39.6,32.6,19.2,0000.0,0011.11,0005.17,0004.60
2022-09-18 09:48:00,,0823.7,5.01,0.00,30.8,29.3,00.0,39.6,32.6,19.3,0000.0,0010.88,0005.18,0004.59
2022-09-18 09:49:00,,0823.8,5.00,0.00,30.8,29.3,00.0,39.6,32.6,19.4,0000.4,0010.41,0005.20,0004.59
2022-09-18 09:50:00,,0823.8,5.00,0.00,30.8,29.3,00.0,39.6,32.6,19.3,0000.0,0011.32,0005.15,0004.58
2022-09-18 09:51:00,,0823.9,5.01,0.00,30.8,29.3,00.0,39.6,32.6,19.2,0000.9,0011.78,0005.12,0004.56
2022-09-18 09:52:00,,0823.9,5.00,0.00,30.8,29.4,00.0,39.6,32.6,19.3,0000.0,0011.64,0005.13,0004.57
2022-09-18 09:53:00,,0823.9,5.00,0.00,30.8,29.3,00.0,39.6,32.6,19.3,0000.0,0011.32,0005.10,0004.57
2022-09-18 09:54:00,,0823.8,4.99,0.00,30.8,29.3,00.0,39.6,32.6,19.3,0000.0,0010.74,0005.06,0004.57
2022-09-18 09:55:00,,0823.8,5.01,0.00,30.8,29.4,00.0,39.6,32.6,19.3,0000.0,0010.74,0005.08,0004.58
2022-09-18 09:56:00,,0823.8,4.99,0.00,30.8,29.4,00.0,39.6,32.6,19.3,0000.0,0010.78,0005.13,0004.61
2022-09-18 09:57:00,,0823.8,5.01,0.00,30.9,29.4,00.0,39.6,32.6,19.1,0000.0,0010.80,0005.15,0004.62
2022-09-18 09:58:00,,0823.8,5.01,0.00,30.8,29.3,00.0,39.6,32.6,19.2,0000.7,0011.06,0005.11,0004.61
2022-09-18 09:59:00,,0823.8,5.00,0.00,30.8,29.3,00.0,39.6,32.6,19.2,0000.3,0011.20,0005.12,0004.62
